Weather in Duby

Russia / Oryol Oblast     52°53′41″N   37°26′05″E
temp.,
°C
wind,
m/s
gust,
m/s
humid.,
%
clouds,
%
prec.,
mm/h
press.,
hPa
HPBL,
m
24 june, thu
thu2400:00+21ene348443 0.0 102152
03:00+20ene34849 0.0 102164
06:00+21e358565 0.0 102095
09:00+26e346968 0.0 1020366
12:00+29e32555 0.0 1020919
15:00+30ne21495 0.0 10191496
18:00+30ne21585 0.0 10181236
21:00+24ene11649 0.1 101811
25 june, fri
fri2500:00+21se22804 0.6 101814
03:00+21w11885 0.8 101811
06:00+22s12865 0.8 101855
09:00+26sse117329 2.1 101775
12:00+29se335430 0.6 10171355
15:00+30s11491 0.6 10162008
18:00+29se35625 0.0 1013249
21:00+25sse2374100 0.3 101528
26 june, sat
sat2600:00+21n469096 0.2 1015134
03:00+20e23906 0.2 101431
06:00+22sse12820 0.0 101448
09:00+26nw11690 0.2 1015366
12:00+29se21557 0.0 10141427
15:00+30sse114711 0.0 10132048
18:00+30sse11525 0.0 10121862
21:00+24se227141 0.0 101319
27 june, sun
sun2700:00+22s23825 0.1 101332
03:00+21wsw1184100 0.1 101311
06:00+23ese1182100 0.0 101443
09:00+26ese3468100 0.0 1013442
12:00+30se3355100 0.0 10131057
15:00+31ese3450100 0.0 10121528
18:00+30e456256 0.0 1011372
21:00+25e36785 0.0 101186
28 june, mon
mon2800:00+23e49791 0.0 1010164
03:00+19nne5994100 8.6 1011164
06:00+20ene61195100 3.9 1009237
09:00+24e7108195 3.9 1009422
12:00+28ese6763100 0.0 1009992
15:00+30se5658100 0.0 10071393
18:00+28se46716 1.6 1007149
21:00+24wnw33848 4.3 100530